SCP
0 0 0 0 0 0 0 0 0 0 0 0 0 0 0 0 0 0 0 -0 0 0 0 0 0 0 -0 0 0 0 1 1 0 1 1 0 0 0
0 0 0 0 0 0 0 0 0 -0 0 0 0 0 0 0 0 0 0 0 0 0 0 0 0 0 0 0 0 0 0 0 0 0 0 0 0 0
0 0 0 0 0 0 0 0 -0 -0 0 0 0 0 0 0 0 0 0 0 0 0 0 0 0 0 0 0 0 0 0 0 0 0 0 0 0 0
0 0 0 0 0 0 0 -0 -0 -0 0 0 0 0 0 0 0 0 0 0 0 0 0 0 0 0 0 0 0 0 0 0 0 0 0 0 0 0
0 0 0 0 0 0 0 0 0 0 -0 0 0 0 -0 0 0 0 0 0 0 0 0 0 0 0 0 0 0 0 0 0 0 0 0 0 0 0
-0 0 0 0 0 0 0 0 0 0 0 0 0 0 0 0 0 0 0 0 0 0 0 0 0 0 0 0 0 0 0 0 0 0 0 0 0 0
0 0 0 0 -0 -0 0 0 0 0 0 0 0 0 0 0 0 0 0 0 0 0 0 0 0 0 0 0 0 0 0 0 0 0 0 0 0 0
0 -0 0 -0 -0 0 0 0 0 0 0 0 0 0 -0 0 0 0 0 0 0 0 0 0 0 0 0 0 0 0 0 0 0 0 0 0 0 0
0 0 -0 -0 -0 -0 -0 -0 -0 -0 0 -0 0 -0 0 0 0 0 0 0 0 0 0 0 0 0 0 0 0 0 0 0 0 0 0 0 0 0
-0 -0 -0 -0 -0 -0 -0 -0 -0 -0 -0 -0 -0 -0 0 0 0 0 0 0 0 0 0 0 0 0 0 0 0 0 0 0 0 0 0 0 0 0
0 0 -0 -0 -0 -0 0 -0 -0 0 -0 -0 -0 -0 -0 -0 0 0 0 0 0 0 0 0 0 0 0 0 0 0 0 0 0 0 0 0 0 0
0 0 -0 -0 -0 -0 0 0 0 0 0 0 0 0 0 0 0 0 0 0 0 0 0 0 0 0 0 0 0 0 0 0 0 0 0 0 0 0
0 0 0 0 -0 -0 0 0 0 0 0 0 0 0 0 0 0 0 0 0 0 0 0 0 0 0 0 0 0 0 0 0 0 0 0 0 0 0
0 0 -0 0 0 0 0 0 0 0 0 0 0 0 0 0 0 0 0 0 0 0 0 0 0 0 0 0 0 0 0 0 0 0 0 0 0 0
0 0 0 0 0 0 0 0 0 0 0 0 0 0 0 0 0 0 0 0 0 0 0 0 0 0 0 0 0 0 0 0 0 0 0 0 0 0
0 0 0 0 0 0 0 0 0 0 0 0 0 0 0 0 0 0 0 0 0 0 0 0 0 0 0 0 0 0 0 0 0 0 0 0 0 0
0 0 0 0 0 0 0 0 0 0 0 0 0 0 0 0 0 0 0 0 0 0 0 0 0 0 0 0 0 0 0 0 0 0 0 0 0 0
0 0 0 0 0 0 0 0 0 0 0 0 0 0 0 0 0 0 0 0 0 0 0 0 0 0 0 0 0 0 0 0 0 0 0 0 0 0
0 0 0 0 0 0 0 0 0 0 0 0 0 0 0 0 0 0 0 0 0 0 -0 -0 0 0 0 0 0 -0 0 0 0 -0 -0 -0 -0 -0
0 0 0 0 0 0 0 0 0 0 0 0 0 0 0 0 0 0 0 0 0 -0 -0 -0 0 -0 0 0 0 0 -0 0 0 0 0 0 0 -0
0 0 0 0 0 0 0 0 0 0 0 0 0 0 -0 0 0 0 0 0 0 -0 -0 0 0 0 0 0 0 -0 0 -0 -0 -0 -0 0 0 0
0 0 0 0 0 0 0 0 0 0 0 0 0 -0 -0 0 0 0 0 0 0 0 0 0 0 0 -0 0 0 0 0 -0 -0 -0 -0 -0 -0 -0
0 0 0 0 0 0 0 0 0 0 0 0 -0 -0 0 0 0 0 0 0 0 0 0 0 0 0 0 0 0 0 0 0 -0 -0 -0 -0 -0 -0
Wind_Speed_500mb
58 57 57 59 55 51 48 49 52 60 54 48 48 35 36 46 33 17 14 12 20 21 15 32 33 38 51 46 50 52 56 51 48 52 49 45 57 79
53 56 54 52 50 45 42 41 41 48 53 50 55 37 29 37 25 14 13 6 12 17 24 29 32 34 36 37 38 44 46 44 43 52 41 38 42 38
50 49 45 39 41 40 36 36 35 38 51 53 39 20 25 37 22 16 9 9 13 20 19 18 20 26 31 35 36 40 44 45 51 47 36 32 40 42
45 35 29 29 32 30 28 28 33 36 43 45 37 24 23 28 23 15 6 5 2 1 7 9 12 14 16 17 21 22 24 26 30 35 34 37 38 39
33 31 28 24 23 22 21 21 23 27 30 32 32 16 17 20 16 15 12 7 9 10 12 15 14 14 14 16 15 18 20 22 24 24 24 27 33 34
30 28 26 25 20 16 18 20 21 27 25 23 22 22 18 20 15 6 7 6 10 10 11 11 12 15 17 18 19 23 25 27 29 28 26 26 25 25
38 29 24 23 23 20 17 14 19 23 28 27 21 13 17 24 21 14 20 16 19 14 13 13 10 11 12 16 15 17 23 26 27 28 28 26 25 24
61 52 40 28 23 16 11 11 20 28 31 28 23 20 18 28 27 24 23 27 22 20 17 17 15 16 16 13 15 20 26 26 31 31 30 31 29 27
62 70 71 60 34 21 15 9 14 16 17 18 12 14 11 18 14 20 27 28 23 21 24 22 20 14 10 10 11 13 19 22 24 25 25 26 26 25
60 58 57 56 58 56 51 47 42 33 20 10 3 1 3 8 9 11 16 19 17 23 22 13 16 18 22 22 19 12 10 15 21 21 22 23 24 25
49 55 58 60 52 44 48 51 53 53 50 48 41 37 32 24 21 14 17 16 20 25 16 17 20 21 22 17 13 12 9 10 13 20 25 26 28 30
41 39 44 46 39 41 46 32 33 38 38 37 39 38 33 34 26 12 19 24 23 13 11 7 13 14 17 17 13 11 8 3 7 19 26 28 29 29
36 39 40 37 37 33 31 34 36 30 29 25 27 28 28 30 26 19 12 9 4 10 14 12 14 16 11 11 16 16 12 11 5 10 13 17 21 26
34 35 36 31 23 22 24 22 18 19 21 20 19 23 23 20 19 20 18 9 3 1 7 10 10 14 14 16 17 17 14 14 11 13 14 16 20 21
27 23 21 20 22 23 21 17 13 16 19 23 25 24 20 16 13 9 9 7 10 9 11 14 14 14 11 13 16 17 20 18 21 21 21 24 26 24
26 23 23 23 23 22 22 23 22 20 20 19 16 14 10 14 13 6 7 6 7 8 16 1 4 6 3 8 12 13 16 14 17 21 21 21 23 26
26 24 24 25 25 25 24 23 22 20 17 15 15 14 14 14 18 16 8 4 4 4 7 4 2 1 4 7 5 7 10 11 13 17 21 19 21 24
29 31 35 37 36 35 32 29 27 27 23 19 17 15 12 16 19 20 12 3 1 3 3 4 2 2 5 6 1 3 7 9 6 10 13 16 15 14
30 38 43 43 42 37 33 30 28 26 22 20 16 15 11 9 15 22 13 4 2 1 6 7 4 6 3 2 3 6 6 2 4 7 2 7 10 9
45 49 49 53 53 44 38 33 27 25 22 21 17 13 10 7 11 15 15 7 5 3 2 2 2 3 5 3 4 4 4 2 2 3 5 3 6 7
48 48 48 51 55 44 37 31 27 23 22 19 15 11 8 5 5 7 11 13 8 5 11 19 16 11 6 2 4 3 4 2 4 6 7 10 9 8
48 49 49 46 51 39 34 30 26 21 22 16 13 9 8 5 4 3 8 11 8 8 15 11 3 3 2 2 3 2 1 5 4 6 10 7 9 9
50 54 43 55 41 41 33 28 26 23 21 15 9 7 8 6 8 4 7 8 7 8 13 8 4 6 5 6 5 5 6 6 6 5 5 5 7 10
Wind_Direction_500mb
302 297 289 286 283 282 275 274 278 289 294 302 312 292 298 338 337 312 298 284 273 260 264 209 223 235 241 240 242 239 238 237 239 232 232 234 238 240
307 299 291 289 283 279 276 273 274 276 283 296 303 322 317 326 349 321 274 301 214 238 237 238 242 236 248 245 241 233 229 230 235 238 232 221 243 267
325 310 296 289 283 278 277 273 271 272 281 294 305 327 313 319 340 311 299 231 220 236 248 253 264 268 265 254 246 237 229 226 222 216 224 235 247 255
339 327 311 296 283 278 277 275 265 263 280 290 299 291 318 306 327 324 289 34 75 197 209 244 261 261 267 265 257 240 238 244 244 239 241 237 240 228
336 343 339 315 292 277 271 270 278 296 298 297 304 300 307 299 300 333 186 215 225 243 253 253 249 247 239 227 221 237 223 203 197 202 209 214 216 217
344 342 342 340 325 299 272 262 280 301 321 322 314 303 273 269 231 216 226 217 240 237 233 235 253 251 240 236 222 202 210 203 192 187 192 199 194 193
16 2 348 341 320 316 305 285 287 303 311 316 321 326 233 233 221 225 218 216 204 219 234 230 229 220 203 193 209 204 200 193 195 180 178 179 183 184
38 34 27 17 10 354 304 307 306 305 304 315 322 343 255 236 237 242 233 211 201 218 216 221 212 205 202 218 214 207 201 195 195 191 185 181 178 178
41 44 45 43 43 33 25 354 322 326 331 326 322 302 254 241 252 243 226 217 222 208 191 196 190 191 184 184 171 187 204 207 203 202 197 189 187 191
43 44 44 45 51 56 63 67 68 61 40 29 8 7 225 226 207 202 199 202 189 170 160 170 171 157 151 146 135 118 154 181 191 201 203 205 205 212
37 37 40 42 38 43 52 58 62 64 56 55 65 69 73 87 95 118 140 145 143 149 130 143 158 165 166 157 163 159 179 200 223 226 228 230 233 232
37 37 32 31 30 35 46 46 49 55 56 50 47 44 46 53 63 88 122 124 126 114 120 101 167 181 181 187 211 208 196 211 231 232 232 234 234 235
27 20 17 10 4 13 35 49 58 62 54 52 46 43 37 39 42 44 75 149 150 146 170 185 188 193 189 178 201 195 214 214 279 282 269 245 241 246
14 8 10 7 23 14 16 36 51 56 52 48 47 45 39 39 33 39 48 53 53 222 208 223 230 198 179 160 180 211 224 239 266 274 252 262 257 255
28 19 5 21 25 28 27 25 16 25 41 44 44 41 38 25 7 22 15 26 17 355 267 245 246 232 229 220 220 208 206 229 252 255 265 267 260 251
13 11 10 17 19 21 27 29 26 18 16 16 14 13 1 350 2 340 315 322 324 352 5 1 186 245 243 236 236 246 255 240 245 249 253 263 257 246
20 25 30 31 28 27 28 23 20 22 24 18 18 13 8 18 9 8 338 280 245 3 347 10 64 203 233 267 254 247 228 227 245 257 264 260 252 246
13 19 23 21 19 13 11 14 11 12 15 9 10 17 16 16 20 11 12 21 344 20 1 10 28 117 119 74 102 234 238 244 261 279 259 252 244 240
17 23 22 15 10 5 2 2 360 1 355 0 1 5 20 40 32 24 20 30 91 273 272 260 203 158 107 7 71 106 133 99 28 23 40 212 224 220
23 17 12 9 5 358 355 355 354 352 352 353 355 1 18 33 35 32 32 26 10 34 54 176 212 196 180 227 210 130 74 59 34 70 58 115 165 176
11 7 2 359 354 351 350 349 349 347 344 347 351 357 2 16 61 32 18 16 34 65 93 103 100 104 112 186 169 133 87 73 355 338 257 213 186 174
359 354 352 343 344 345 346 347 346 346 348 348 0 3 7 15 128 36 27 18 28 106 123 102 84 151 273 209 230 275 134 115 87 45 50 57 216 221
344 347 337 341 344 342 339 342 345 345 344 348 354 358 32 63 126 74 36 34 44 122 135 105 96 50 105 93 63 66 68 63 63 51 17 273 255 244
Wind_Speed_850mb
58 57 57 59 55 51 48 49 52 60 54 48 48 35 36 46 33 17 14 12 20 21 15 32 33 38 51 46 50 52 56 51 48 52 49 45 57 79
53 56 54 52 50 45 42 41 41 48 53 50 55 37 29 37 25 14 13 6 12 17 24 29 32 34 36 37 38 44 46 44 43 52 41 38 42 38
50 49 45 39 41 40 36 36 35 38 51 53 39 20 25 37 22 16 9 9 13 20 19 18 20 26 31 35 36 40 44 45 51 47 36 32 40 42
45 35 29 29 32 30 28 28 33 36 43 45 37 24 23 28 23 15 6 5 2 1 7 9 12 14 16 17 21 22 24 26 30 35 34 37 38 39
33 31 28 24 23 22 21 21 23 27 30 32 32 16 17 20 16 15 12 7 9 10 12 15 14 14 14 16 15 18 20 22 24 24 24 27 33 34
30 28 26 25 20 16 18 20 21 27 25 23 22 22 18 20 15 6 7 6 10 10 11 11 12 15 17 18 19 23 25 27 29 28 26 26 25 25
38 29 24 23 23 20 17 14 19 23 28 27 21 13 17 24 21 14 20 16 19 14 13 13 10 11 12 16 15 17 23 26 27 28 28 26 25 24
61 52 40 28 23 16 11 11 20 28 31 28 23 20 18 28 27 24 23 27 22 20 17 17 15 16 16 13 15 20 26 26 31 31 30 31 29 27
62 70 71 60 34 21 15 9 14 16 17 18 12 14 11 18 14 20 27 28 23 21 24 22 20 14 10 10 11 13 19 22 24 25 25 26 26 25
60 58 57 56 58 56 51 47 42 33 20 10 3 1 3 8 9 11 16 19 17 23 22 13 16 18 22 22 19 12 10 15 21 21 22 23 24 25
49 55 58 60 52 44 48 51 53 53 50 48 41 37 32 24 21 14 17 16 20 25 16 17 20 21 22 17 13 12 9 10 13 20 25 26 28 30
41 39 44 46 39 41 46 32 33 38 38 37 39 38 33 34 26 12 19 24 23 13 11 7 13 14 17 17 13 11 8 3 7 19 26 28 29 29
36 39 40 37 37 33 31 34 36 30 29 25 27 28 28 30 26 19 12 9 4 10 14 12 14 16 11 11 16 16 12 11 5 10 13 17 21 26
34 35 36 31 23 22 24 22 18 19 21 20 19 23 23 20 19 20 18 9 3 1 7 10 10 14 14 16 17 17 14 14 11 13 14 16 20 21
27 23 21 20 22 23 21 17 13 16 19 23 25 24 20 16 13 9 9 7 10 9 11 14 14 14 11 13 16 17 20 18 21 21 21 24 26 24
26 23 23 23 23 22 22 23 22 20 20 19 16 14 10 14 13 6 7 6 7 8 16 1 4 6 3 8 12 13 16 14 17 21 21 21 23 26
26 24 24 25 25 25 24 23 22 20 17 15 15 14 14 14 18 16 8 4 4 4 7 4 2 1 4 7 5 7 10 11 13 17 21 19 21 24
29 31 35 37 36 35 32 29 27 27 23 19 17 15 12 16 19 20 12 3 1 3 3 4 2 2 5 6 1 3 7 9 6 10 13 16 15 14
30 38 43 43 42 37 33 30 28 26 22 20 16 15 11 9 15 22 13 4 2 1 6 7 4 6 3 2 3 6 6 2 4 7 2 7 10 9
45 49 49 53 53 44 38 33 27 25 22 21 17 13 10 7 11 15 15 7 5 3 2 2 2 3 5 3 4 4 4 2 2 3 5 3 6 7
48 48 48 51 55 44 37 31 27 23 22 19 15 11 8 5 5 7 11 13 8 5 11 19 16 11 6 2 4 3 4 2 4 6 7 10 9 8
48 49 49 46 51 39 34 30 26 21 22 16 13 9 8 5 4 3 8 11 8 8 15 11 3 3 2 2 3 2 1 5 4 6 10 7 9 9
50 54 43 55 41 41 33 28 26 23 21 15 9 7 8 6 8 4 7 8 7 8 13 8 4 6 5 6 5 5 6 6 6 5 5 5 7 10
Wind_Direction_850mb
302 297 289 286 283 282 275 274 278 289 294 302 312 292 298 338 337 312 298 284 273 260 264 209 223 235 241 240 242 239 238 237 239 232 232 234 238 240
307 299 291 289 283 279 276 273 274 276 283 296 303 322 317 326 349 321 274 301 214 238 237 238 242 236 248 245 241 233 229 230 235 238 232 221 243 267
325 310 296 289 283 278 277 273 271 272 281 294 305 327 313 319 340 311 299 231 220 236 248 253 264 268 265 254 246 237 229 226 222 216 224 235 247 255
339 327 311 296 283 278 277 275 265 263 280 290 299 291 318 306 327 324 289 34 75 197 209 244 261 261 267 265 257 240 238 244 244 239 241 237 240 228
336 343 339 315 292 277 271 270 278 296 298 297 304 300 307 299 300 333 186 215 225 243 253 253 249 247 239 227 221 237 223 203 197 202 209 214 216 217
344 342 342 340 325 299 272 262 280 301 321 322 314 303 273 269 231 216 226 217 240 237 233 235 253 251 240 236 222 202 210 203 192 187 192 199 194 193
16 2 348 341 320 316 305 285 287 303 311 316 321 326 233 233 221 225 218 216 204 219 234 230 229 220 203 193 209 204 200 193 195 180 178 179 183 184
38 34 27 17 10 354 304 307 306 305 304 315 322 343 255 236 237 242 233 211 201 218 216 221 212 205 202 218 214 207 201 195 195 191 185 181 178 178
41 44 45 43 43 33 25 354 322 326 331 326 322 302 254 241 252 243 226 217 222 208 191 196 190 191 184 184 171 187 204 207 203 202 197 189 187 191
43 44 44 45 51 56 63 67 68 61 40 29 8 7 225 226 207 202 199 202 189 170 160 170 171 157 151 146 135 118 154 181 191 201 203 205 205 212
37 37 40 42 38 43 52 58 62 64 56 55 65 69 73 87 95 118 140 145 143 149 130 143 158 165 166 157 163 159 179 200 223 226 228 230 233 232
37 37 32 31 30 35 46 46 49 55 56 50 47 44 46 53 63 88 122 124 126 114 120 101 167 181 181 187 211 208 196 211 231 232 232 234 234 235
27 20 17 10 4 13 35 49 58 62 54 52 46 43 37 39 42 44 75 149 150 146 170 185 188 193 189 178 201 195 214 214 279 282 269 245 241 246
14 8 10 7 23 14 16 36 51 56 52 48 47 45 39 39 33 39 48 53 53 222 208 223 230 198 179 160 180 211 224 239 266 274 252 262 257 255
28 19 5 21 25 28 27 25 16 25 41 44 44 41 38 25 7 22 15 26 17 355 267 245 246 232 229 220 220 208 206 229 252 255 265 267 260 251
13 11 10 17 19 21 27 29 26 18 16 16 14 13 1 350 2 340 315 322 324 352 5 1 186 245 243 236 236 246 255 240 245 249 253 263 257 246
20 25 30 31 28 27 28 23 20 22 24 18 18 13 8 18 9 8 338 280 245 3 347 10 64 203 233 267 254 247 228 227 245 257 264 260 252 246
13 19 23 21 19 13 11 14 11 12 15 9 10 17 16 16 20 11 12 21 344 20 1 10 28 117 119 74 102 234 238 244 261 279 259 252 244 240
17 23 22 15 10 5 2 2 360 1 355 0 1 5 20 40 32 24 20 30 91 273 272 260 203 158 107 7 71 106 133 99 28 23 40 212 224 220
23 17 12 9 5 358 355 355 354 352 352 353 355 1 18 33 35 32 32 26 10 34 54 176 212 196 180 227 210 130 74 59 34 70 58 115 165 176
11 7 2 359 354 351 350 349 349 347 344 347 351 357 2 16 61 32 18 16 34 65 93 103 100 104 112 186 169 133 87 73 355 338 257 213 186 174
359 354 352 343 344 345 346 347 346 346 348 348 0 3 7 15 128 36 27 18 28 106 123 102 84 151 273 209 230 275 134 115 87 45 50 57 216 221
344 347 337 341 344 342 339 342 345 345 344 348 354 358 32 63 126 74 36 34 44 122 135 105 96 50 105 93 63 66 68 63 63 51 17 273 255 244